Location: Unspecified
(0.0000°N, 0.0000°E)
Time: 18:59:29
(UTC+00:00)

Vanguard 2 Rocket - Pass Details

Date: 18 January 2020
Orbit: 554 x 3327 km, 32.9° (Epoch: 20 February)

Event Time Altitude Azimuth Distance (km) Brightness Sun altitude
Rises 19:19:31 0° 251° (WSW) 7,114 13.3 -16.2°
Reaches altitude 10° 19:29:00 10° 228° (SW) 5,599 12.0 -18.4°
Maximum altitude 19:35:34 13° 204° (SSW) 4,819 11.2 -19.9°
Drops below altitude 10° 19:41:07 10° 178° (S) 4,575 10.7 -21.2°
Sets 19:47:07 0° 152° (SSE) 4,924 10.6 -22.6°
